Radiation Dose at Monitoring Post of Fukushima Daini Nuclear Power Station
Date,Time,MP-1(microSv/h),MP-2(microSv/h),MP-3(microSv/h),MP-4(microSv/h),MP-5(microSv/h),MP-6(microSv/h),MP-7(microSv/h),Wind Direction,Wind Velocity(m/s),Rain
2015/03/05,00:00,0.538,0.328,0.550,0.502,0.548,0.253,0.224,west-northwest,8.5,No
2015/03/05,00:10,0.535,0.328,0.552,0.503,0.550,0.252,0.224,west-northwest,5.1,No
2015/03/05,00:20,0.537,0.330,0.549,0.507,0.547,0.253,0.223,northwest,3.0,No
2015/03/05,00:30,0.538,0.329,0.552,0.503,0.547,0.251,0.223,west-northwest,7.6,No
2015/03/05,00:40,0.536,0.327,0.551,0.504,0.549,0.253,0.222,west-northwest,8.6,No
2015/03/05,00:50,0.537,0.329,0.553,0.506,0.549,0.252,0.224,west-northwest,8.3,No
2015/03/05,01:00,0.538,0.329,0.551,0.505,0.548,0.251,0.222,west,8.6,No
2015/03/05,01:10,0.539,0.329,0.550,0.505,0.547,0.252,0.224,northwest,7.5,No
2015/03/05,01:20,0.537,0.328,0.552,0.505,0.549,0.252,0.222,west,7.2,No
2015/03/05,01:30,0.537,0.330,0.552,0.505,0.548,0.253,0.224,west-northwest,14.0,No
2015/03/05,01:40,0.539,0.329,0.552,0.504,0.548,0.252,0.222,west-northwest,16.3,No
2015/03/05,01:50,0.540,0.330,0.552,0.507,0.549,0.252,0.223,west-northwest,11.9,No
2015/03/05,02:00,0.537,0.329,0.553,0.505,0.549,0.252,0.222,northwest,5.6,No
2015/03/05,02:10,0.538,0.330,0.554,0.505,0.549,0.253,0.223,northwest,2.8,No
2015/03/05,02:20,0.541,0.330,0.552,0.507,0.547,0.253,0.223,west-northwest,6.0,No
2015/03/05,02:30,0.540,0.330,0.551,0.504,0.551,0.253,0.223,west-northwest,14.8,No
2015/03/05,02:40,0.539,0.330,0.552,0.505,0.551,0.253,0.222,west,13.4,No
2015/03/05,02:50,0.540,0.329,0.553,0.505,0.549,0.254,0.223,west,5.8,No
2015/03/05,03:00,0.542,0.331,0.553,0.507,0.550,0.252,0.223,west,1.2,No
2015/03/05,03:10,0.542,0.331,0.553,0.506,0.550,0.253,0.222,west,1.8,No
2015/03/05,03:20,0.539,0.330,0.552,0.506,0.552,0.251,0.223,west-southwest,1.1,No
2015/03/05,03:30,0.539,0.329,0.555,0.506,0.547,0.252,0.222,west,3.6,No
2015/03/05,03:40,0.543,0.329,0.554,0.506,0.549,0.252,0.224,north-northwest,2.4,No
2015/03/05,03:50,0.538,0.330,0.552,0.505,0.547,0.252,0.223,northwest,2.8,No
2015/03/05,04:00,0.539,0.330,0.553,0.507,0.548,0.253,0.224,east-southeast,0.8,No
2015/03/05,04:10,0.542,0.331,0.553,0.507,0.550,0.252,0.223,north-northwest,1.7,No
2015/03/05,04:20,0.540,0.329,0.554,0.506,0.547,0.252,0.224,north,2.0,No
2015/03/05,04:30,0.540,0.329,0.552,0.506,0.547,0.252,0.224,north-northwest,1.1,No
2015/03/05,04:40,0.538,0.329,0.554,0.506,0.550,0.252,0.223,north,1.7,No
2015/03/05,04:50,0.538,0.331,0.554,0.505,0.551,0.253,0.223,north,0.8,No
2015/03/05,05:00,0.540,0.330,0.553,0.508,0.549,0.252,0.223,-,CALM,No
2015/03/05,05:10,0.540,0.330,0.552,0.508,0.548,0.254,0.224,north,1.4,No
2015/03/05,05:20,0.540,0.329,0.553,0.505,0.551,0.253,0.223,-,CALM,No
2015/03/05,05:30,0.539,0.330,0.554,0.505,0.549,0.253,0.223,north-northeast,1.3,No
2015/03/05,05:40,0.542,0.331,0.552,0.505,0.549,0.254,0.223,-,CALM,No
2015/03/05,05:50,0.539,0.330,0.552,0.508,0.548,0.253,0.223,north-northeast,0.8,No
2015/03/05,06:00,0.538,0.329,0.554,0.506,0.554,0.253,0.223,north-northwest,2.2,No
2015/03/05,06:10,0.540,0.330,0.556,0.507,0.550,0.253,0.225,north-northeast,3.9,No
2015/03/05,06:20,0.543,0.333,0.552,0.506,0.549,0.252,0.223,north-northwest,3.3,No
2015/03/05,06:30,0.537,0.329,0.552,0.505,0.550,0.253,0.223,northwest,1.7,No
2015/03/05,06:40,0.538,0.329,0.551,0.505,0.549,0.254,0.224,-,CALM,No
2015/03/05,06:50,0.541,0.329,0.553,0.506,0.551,0.252,0.223,north-northwest,2.1,No
2015/03/05,07:00,0.540,0.328,0.555,0.505,0.548,0.252,0.223,north-northeast,1.4,No
2015/03/05,07:10,0.539,0.330,0.551,0.507,0.548,0.252,0.224,north,3.9,No
2015/03/05,07:20,0.539,0.328,0.553,0.506,0.549,0.253,0.223,north-northwest,4.2,No
2015/03/05,07:30,0.541,0.330,0.554,0.504,0.551,0.253,0.223,north,2.5,No
2015/03/05,07:40,0.539,0.331,0.553,0.506,0.549,0.253,0.223,north-northwest,4.3,No
2015/03/05,07:50,0.537,0.328,0.551,0.504,0.547,0.253,0.222,west-northwest,3.1,No
2015/03/05,08:00,0.541,0.329,0.554,0.504,0.551,0.254,0.224,north,2.8,No
2015/03/05,08:10,0.539,0.329,0.555,0.506,0.550,0.253,0.222,north-northwest,3.3,No
2015/03/05,08:20,0.539,0.330,0.553,0.504,0.550,0.253,0.223,north,5.3,No
2015/03/05,08:30,0.541,0.329,0.552,0.506,0.551,0.253,0.222,north,4.5,No
2015/03/05,08:40,0.542,0.330,0.555,0.507,0.550,0.253,0.222,north-northwest,3.1,No
2015/03/05,08:50,0.539,0.328,0.551,0.506,0.549,0.252,0.224,northeast,4.5,No
2015/03/05,09:00,0.540,0.326,0.551,0.509,0.550,0.254,0.223,-,CALM,No
2015/03/05,09:10,0.540,0.329,0.554,0.505,0.552,0.254,0.224,west,3.7,No
2015/03/05,09:20,0.538,0.330,0.552,0.509,0.549,0.253,0.224,northwest,3.4,No
2015/03/05,09:30,0.540,0.329,0.553,0.508,0.551,0.252,0.223,west-northwest,4.3,No
2015/03/05,09:40,0.539,0.331,0.554,0.506,0.550,0.253,0.224,north-northwest,2.8,No
2015/03/05,09:50,0.537,0.328,0.554,0.508,0.548,0.254,0.223,north-northwest,4.4,No
2015/03/05,10:00,0.540,0.329,0.553,0.505,0.552,0.252,0.225,west-northwest,5.0,No
2015/03/05,10:10,0.538,0.332,0.554,0.508,0.549,0.254,0.223,west-northwest,6.9,No
2015/03/05,10:20,0.540,0.330,0.555,0.505,0.553,0.253,0.223,west-northwest,4.9,No
2015/03/05,10:30,0.539,0.330,0.553,0.507,0.549,0.252,0.223,west-northwest,4.7,No
2015/03/05,10:40,0.537,0.329,0.554,0.504,0.550,0.251,0.223,west-northwest,3.2,No
2015/03/05,10:50,0.539,0.330,0.553,0.507,0.555,0.251,0.224,west-northwest,6.7,No
2015/03/05,11:00,0.537,0.330,0.549,0.503,0.551,0.254,0.223,west-northwest,8.2,No
2015/03/05,11:10,0.540,0.329,0.554,0.505,0.553,0.253,0.224,west-northwest,7.2,No
2015/03/05,11:20,0.538,0.330,0.549,0.505,0.548,0.254,0.223,west-northwest,5.0,No
2015/03/05,11:30,0.541,0.329,0.552,0.509,0.553,0.252,0.225,west-northwest,7.8,No
2015/03/05,11:40,0.539,0.328,0.550,0.505,0.550,0.254,0.223,northwest,6.7,No
2015/03/05,11:50,0.540,0.329,0.553,0.508,0.553,0.252,0.223,west,7.7,No
2015/03/05,12:00,0.540,0.331,0.555,0.507,0.551,0.254,0.226,northwest,8.4,No
2015/03/05,12:10,0.538,0.329,0.553,0.511,0.553,0.253,0.223,west-northwest,8.0,No
2015/03/05,12:20,0.543,0.328,0.555,0.506,0.551,0.253,0.225,west,12.1,No
2015/03/05,12:30,0.541,0.331,0.552,0.511,0.554,0.253,0.224,west-northwest,10.7,No
2015/03/05,12:40,0.543,0.330,0.557,0.507,0.552,0.254,0.225,west,16.0,No
2015/03/05,12:50,0.542,0.330,0.554,0.510,0.553,0.252,0.224,west,12.4,No
2015/03/05,13:00,0.539,0.330,0.557,0.506,0.554,0.254,0.225,west,12.2,No
2015/03/05,13:10,0.543,0.330,0.557,0.512,0.551,0.253,0.224,west-northwest,14.4,No
2015/03/05,13:20,0.541,0.331,0.555,0.506,0.555,0.252,0.225,west,14.6,No
2015/03/05,13:30,0.542,0.330,0.556,0.512,0.552,0.254,0.225,west-northwest,16.8,No
2015/03/05,13:40,0.542,0.332,0.552,0.509,0.555,0.253,0.224,west,13.4,No
2015/03/05,13:50,0.539,0.332,0.557,0.511,0.550,0.255,0.224,west-northwest,13.4,No
2015/03/05,14:00,0.542,0.331,0.555,0.510,0.556,0.254,0.225,west,14.9,No
2015/03/05,14:10,0.542,0.332,0.558,0.509,0.552,0.254,0.223,west,11.1,No
2015/03/05,14:20,0.540,0.332,0.556,0.510,0.555,0.254,0.225,west,9.1,No
2015/03/05,14:30,0.543,0.331,0.555,0.511,0.551,0.254,0.225,west-northwest,7.6,No
2015/03/05,14:40,0.540,0.332,0.557,0.512,0.551,0.254,0.225,northwest,5.0,No
2015/03/05,14:50,0.544,0.331,0.556,0.510,0.555,0.254,0.225,north-northwest,3.6,No
2015/03/05,15:00,0.542,0.331,0.558,0.511,0.551,0.254,0.224,north,2.7,No
2015/03/05,15:10,0.541,0.331,0.559,0.511,0.556,0.254,0.225,northwest,6.4,No
2015/03/05,15:20,0.543,0.332,0.559,0.512,0.555,0.255,0.226,west,8.6,No
2015/03/05,15:30,0.540,0.332,0.560,0.512,0.553,0.254,0.227,west,14.1,No
2015/03/05,15:40,0.543,0.335,0.559,0.513,0.555,0.255,0.226,west,13.2,No
2015/03/05,15:50,0.544,0.333,0.559,0.512,0.554,0.254,0.226,west-northwest,11.2,No
2015/03/05,16:00,0.539,0.332,0.559,0.513,0.555,0.254,0.226,northwest,5.3,No
2015/03/05,16:10,0.544,0.331,0.559,0.514,0.557,0.255,0.226,west,6.4,No
2015/03/05,16:20,0.543,0.332,0.559,0.512,0.553,0.255,0.224,north-northwest,5.1,No
2015/03/05,16:30,0.543,0.332,0.559,0.511,0.552,0.254,0.226,north-northwest,5.5,No
2015/03/05,16:40,0.544,0.332,0.559,0.512,0.555,0.255,0.225,north,3.1,No
2015/03/05,16:50,0.543,0.333,0.556,0.509,0.553,0.253,0.226,north,6.4,No
2015/03/05,17:00,0.542,0.331,0.559,0.509,0.553,0.255,0.225,northwest,5.5,No
2015/03/05,17:10,0.544,0.330,0.560,0.513,0.552,0.253,0.227,north-northwest,6.7,No
2015/03/05,17:20,0.544,0.332,0.558,0.512,0.554,0.253,0.226,north,8.2,No
2015/03/05,17:30,0.544,0.332,0.558,0.511,0.552,0.255,0.226,north,5.4,No
2015/03/05,17:40,0.545,0.331,0.560,0.514,0.552,0.254,0.225,northwest,4.2,No
2015/03/05,17:50,0.545,0.331,0.560,0.514,0.554,0.254,0.227,north,4.7,No
2015/03/05,18:00,0.542,0.330,0.556,0.511,0.554,0.255,0.226,north-northwest,4.8,No
2015/03/05,18:10,0.542,0.331,0.560,0.512,0.552,0.254,0.226,north-northwest,3.6,No
2015/03/05,18:20,0.544,0.331,0.560,0.513,0.553,0.254,0.226,north-northwest,4.7,No
2015/03/05,18:30,0.541,0.332,0.558,0.513,0.554,0.255,0.227,north-northwest,4.8,No
2015/03/05,18:40,0.542,0.332,0.557,0.510,0.551,0.255,0.226,north-northwest,6.7,No
2015/03/05,18:50,0.545,0.332,0.560,0.512,0.553,0.254,0.225,north,5.6,No
2015/03/05,19:00,0.543,0.331,0.558,0.511,0.552,0.254,0.225,northwest,4.2,No
2015/03/05,19:10,0.541,0.333,0.559,0.511,0.554,0.254,0.226,northwest,4.1,No
2015/03/05,19:20,0.543,0.333,0.557,0.512,0.552,0.254,0.225,northwest,5.6,No
2015/03/05,19:30,0.545,0.331,0.560,0.515,0.553,0.253,0.226,northwest,5.3,No
2015/03/05,19:40,0.541,0.331,0.559,0.510,0.556,0.254,0.226,northwest,3.9,No
2015/03/05,19:50,0.544,0.332,0.558,0.512,0.553,0.254,0.225,west-northwest,4.7,No
2015/03/05,20:00,0.543,0.332,0.558,0.513,0.551,0.254,0.226,north-northwest,4.6,No
2015/03/05,20:10,0.543,0.330,0.559,0.513,0.552,0.254,0.226,northwest,5.3,No
2015/03/05,20:20,0.543,0.332,0.558,0.513,0.552,0.253,0.226,west-northwest,4.8,No
2015/03/05,20:30,0.544,0.331,0.557,0.512,0.550,0.254,0.226,northwest,4.2,No
2015/03/05,20:40,0.544,0.332,0.559,0.514,0.554,0.254,0.225,northwest,5.0,No
2015/03/05,20:50,0.542,0.331,0.558,0.510,0.553,0.253,0.226,north-northwest,3.6,No
2015/03/05,21:00,0.544,0.331,0.558,0.511,0.553,0.254,0.227,northwest,3.3,No
2015/03/05,21:10,0.543,0.330,0.560,0.511,0.553,0.255,0.226,north,2.1,No
2015/03/05,21:20,0.541,0.332,0.558,0.513,0.550,0.254,0.226,north-northwest,3.0,No
2015/03/05,21:30,0.539,0.331,0.558,0.510,0.551,0.254,0.226,north-northwest,4.6,No
2015/03/05,21:40,0.544,0.330,0.558,0.512,0.555,0.254,0.225,north-northwest,4.4,No
2015/03/05,21:50,0.542,0.331,0.558,0.512,0.551,0.255,0.227,north-northwest,4.5,No
2015/03/05,22:00,0.541,0.332,0.559,0.513,0.551,0.254,0.226,north-northwest,4.8,No
2015/03/05,22:10,0.542,0.332,0.559,0.512,0.552,0.255,0.226,north-northwest,6.9,No
2015/03/05,22:20,0.543,0.330,0.559,0.510,0.554,0.255,0.224,north-northwest,7.3,No
2015/03/05,22:30,0.543,0.332,0.561,0.511,0.551,0.255,0.226,north-northwest,6.1,No
2015/03/05,22:40,0.542,0.332,0.558,0.515,0.551,0.255,0.225,northwest,5.0,No
2015/03/05,22:50,0.543,0.332,0.557,0.512,0.551,0.255,0.226,north-northwest,3.9,No
2015/03/05,23:00,0.543,0.332,0.557,0.510,0.553,0.254,0.226,west-northwest,3.1,No
2015/03/05,23:10,0.542,0.331,0.560,0.511,0.553,0.255,0.227,northwest,2.4,No
2015/03/05,23:20,0.541,0.332,0.560,0.512,0.551,0.254,0.227,north-northwest,3.5,No
2015/03/05,23:30,0.542,0.332,0.558,0.514,0.550,0.255,0.226,northwest,5.8,No
2015/03/05,23:40,0.542,0.333,0.557,0.512,0.552,0.254,0.226,north-northwest,5.1,No
2015/03/05,23:50,0.542,0.331,0.560,0.513,0.555,0.253,0.226,north-northwest,3.9,No
